User: anonymous   Login
Location: *
(37.5724°S, 58.0067°E)
Time: 14:44:32
(UTC+00:00)
Language:

Cosmos 1707 - Orbit

View from above orbital plane
View from above orbital plane
View from above satellite
View from above satellite

Ground track
Ground track

The orbit data is extracted from the following two-line orbital elements,

1 16326U 85113A   20339.89258195  .00000665  00000-0  34497-4 0  9998
2 16326  82.5122  42.7770 0009047 238.9388 121.0956 15.14441287908994
Epoch (UTC): 04 December 2020 21:25:19
Eccentricity: 0.0009047
inclination: 82.5122°
perigee height: 516 km
apogee height: 529 km
right ascension of ascending node: 42.7770°
argument of perigee: 238.9388°
revolutions per day: 15.14441287
mean anomaly at epoch: 121.0956°
orbit number at epoch: 90899

The dashed part of the orbit path shows where the satellite is in the earth's shadow,  

DLR